GALAXY 19 (G-19)

Last updated on Thu Nov 21 2024 00:02:41 GMT+0000 (Coordinated Universal Time)

1 33376U 08045A 24325.27820903 -.00000137 00000+0 00000+0 0 9996 2 33376 0.0446 93.3623 0002902 148.0061 181.5746 1.00270814 59141
UTC large
Height (km)
Speed (km/s)
/
Latitude / Longitude
Inclination (degrees)
Orbital Period (minutes)
Azimuth
Elevation
Range (km)
Doppler Factor

Next 0 passes for location: London (51.5072 / 0.1276)

Sorry there are no passes over London.